RH
8 7 7 6 4 4 3 5 7 7 5 18 41 44 42 43 41 36 27 35 62 59 67 66 68 65 86 85 68 73 67 61 55 56 60 63 67 70 70 72 76 90 82
9 9 9 8 5 4 3 4 7 6 5 17 51 58 62 75 72 50 36 32 51 67 74 64 69 71 70 83 88 80 71 67 63 62 61 62 64 55 54 68 76 79 82
9 9 9 9 8 5 4 4 5 5 16 55 62 64 80 79 96 83 62 40 49 66 76 77 69 61 72 87 90 96 79 66 69 64 65 64 65 62 57 50 63 61 66
8 6 9 9 9 6 4 4 4 9 39 63 64 66 86 92 92 97 88 58 64 69 71 89 94 82 86 95 96 96 81 65 70 63 63 65 68 73 65 68 78 59 43
8 7 9 9 9 8 5 4 4 12 48 70 71 66 74 84 93 96 96 93 95 82 76 73 92 82 81 96 96 96 82 75 69 70 69 67 70 75 64 59 73 68 60
7 7 9 9 9 8 5 4 4 20 65 56 64 60 71 90 86 93 83 95 96 82 81 80 88 94 97 97 96 96 95 93 91 79 78 73 62 60 66 60 66 69 65
7 6 8 9 10 7 4 4 3 20 55 57 66 67 60 72 79 76 87 95 96 96 87 79 94 97 96 96 96 89 95 95 95 94 85 78 79 76 80 67 62 63 69
7 5 8 9 11 6 4 3 3 11 50 58 60 70 62 57 62 81 86 90 91 96 90 91 97 96 96 97 96 87 89 88 86 76 71 76 77 82 94 86 69 71 78
7 6 8 9 11 6 5 3 3 8 64 74 56 62 64 75 89 97 97 84 84 95 90 92 96 97 95 96 95 84 73 69 69 67 67 68 77 80 91 99 87 78 68
6 8 7 9 12 7 5 3 3 4 40 68 64 47 64 82 87 99 96 95 92 90 94 90 96 96 97 96 97 94 87 66 60 55 56 59 72 80 82 92 83 72 68
6 8 7 9 12 10 5 3 3 2 12 50 74 66 57 69 94 96 100 94 98 87 95 95 97 96 96 94 95 92 66 46 41 42 47 49 56 64 67 73 64 45 54
7 8 8 7 9 12 7 5 3 2 7 48 77 79 84 88 88 93 96 97 96 98 97 96 97 96 96 96 94 91 79 47 52 30 33 39 43 44 42 45 54 55 49
8 9 8 8 9 11 10 6 5 3 2 12 33 79 86 98 96 95 96 96 97 99 96 96 95 94 97 98 94 84 59 58 32 30 27 28 30 31 33 34 34 35 37
8 11 10 8 8 10 13 8 7 4 2 2 13 67 83 89 94 96 95 95 97 95 93 94 94 96 100 100 94 52 39 33 32 32 32 29 30 31 31 31 31 30 29
10 11 11 10 8 11 12 12 8 7 4 3 3 43 81 78 92 93 99 95 96 92 93 96 91 87 90 95 90 72 63 69 83 39 36 36 32 34 41 49 49 46 42
12 12 11 11 10 10 13 11 12 8 6 4 4 5 70 96 84 90 94 95 95 92 91 92 97 92 97 94 71 62 78 95 59 39 40 40 47 55 58 57 52 44 38
14 12 13 13 13 11 12 13 11 13 9 6 4 4 5 40 71 74 83 90 94 96 97 91 94 94 95 97 93 72 74 95 62 48 54 52 56 58 58 52 42 30 20
16 16 15 14 14 13 13 13 12 11 14 10 7 6 4 4 27 63 79 87 94 98 94 91 86 80 90 97 97 99 96 94 85 64 61 56 58 55 49 40 29 18 13
25 24 22 18 17 17 16 14 14 13 12 15 11 8 7 5 4 23 57 88 98 97 94 86 92 85 89 91 92 97 100 97 93 69 67 78 74 49 35 26 16 12 9
35 33 28 23 19 21 20 17 16 15 16 13 15 14 10 7 6 4 16 42 66 71 84 85 89 95 96 94 93 94 95 98 94 77 93 94 86 79 68 20 12 8 7
42 41 42 36 29 25 23 22 18 19 19 19 15 15 16 15 9 6 6 8 24 47 57 55 85 94 92 94 98 97 95 97 97 99 98 97 93 77 46 20 10 7 8
47 48 50 51 43 34 28 24 22 19 20 20 19 17 16 16 17 14 7 5 6 10 29 55 55 49 76 98 89 93 98 96 95 95 96 95 48 35 27 30 13 9 7
56 57 61 62 59 49 42 32 27 25 22 21 25 24 24 21 18 18 16 10 6 5 7 10 29 48 47 49 68 86 93 98 95 97 96 98 98 90 79 77 65 47 45
64 69 76 74 70 61 51 43 36 32 28 27 26 35 29 25 24 21 19 19 15 9 7 7 7 11 18 27 38 40 46 76 100 96 93 94 94 93 88 78 49 19 25
76 79 83 85 77 67 57 52 49 42 37 31 27 24 31 32 28 27 23 21 20 18 14 9 9 10 8 8 11 16 27 40 44 48 53 50 53 80 87 90 88 93 89
90 89 89 88 80 70 64 61 60 56 50 42 35 31 28 33 37 35 33 27 24 24 23 20 16 12 9 8 8 10 11 12 12 14 15 16 17 17 18 16 15 18 20
Wind_Speed
15 16 17 18 19 20 19 20 21 22 22 20 25 27 28 27 25 27 29 30 25 24 24 24 23 24 22 22 22 22 21 21 20 20 19 18 17 16 16 15 15 14 13
16 15 16 19 20 21 21 22 22 23 22 23 25 24 23 20 25 28 30 31 28 25 25 24 24 23 25 23 25 25 24 23 22 21 21 19 18 16 15 15 15 15 14
18 18 17 18 20 21 22 23 23 23 20 23 22 22 24 25 32 28 28 28 28 28 26 23 22 25 25 28 30 34 28 26 23 22 21 20 19 18 18 17 16 15 16
19 19 18 20 21 21 22 22 23 20 19 20 21 20 22 24 31 27 30 26 25 27 26 23 24 25 24 28 29 34 29 27 26 24 22 20 18 18 17 17 16 16 15
19 19 19 21 21 22 22 22 22 19 18 20 19 16 19 21 27 25 20 21 30 24 24 27 24 29 29 25 26 23 32 27 25 25 23 22 20 18 18 17 16 16 15
20 20 21 22 22 22 21 21 20 17 16 18 16 14 17 17 20 17 24 21 25 24 24 26 23 23 30 29 33 28 30 27 25 24 22 20 20 20 18 17 17 17 17
21 19 21 24 21 20 20 19 18 18 14 14 12 13 14 16 18 21 19 23 16 22 20 21 21 33 36 32 34 28 24 27 24 20 19 21 21 19 18 18 18 18 17
22 19 21 22 19 19 18 18 17 17 14 12 11 12 13 12 17 26 24 24 20 12 17 22 29 27 23 29 31 28 25 24 23 23 23 22 21 19 16 18 18 17 18
22 21 20 19 18 18 17 16 17 17 13 11 10 14 10 14 21 14 30 20 19 20 22 23 28 28 17 29 33 28 25 25 25 23 23 23 21 19 18 17 18 18 17
24 21 19 19 18 17 16 15 16 17 16 14 11 15 12 18 19 26 25 17 17 20 19 21 25 26 25 28 29 31 27 25 23 23 23 23 21 20 21 19 17 17 18
24 21 20 20 19 17 17 14 14 15 17 14 13 12 18 16 15 46 23 12 17 22 21 23 23 27 29 32 30 32 25 22 21 21 21 22 22 21 21 20 18 19 17
24 23 21 21 21 18 17 15 13 12 15 14 13 15 11 12 25 25 35 27 25 22 20 24 21 20 31 31 31 28 27 25 22 24 23 23 23 22 21 20 19 21 20
24 23 22 23 23 20 19 17 12 12 12 13 13 13 14 12 17 16 30 24 26 22 23 20 22 27 37 32 34 30 29 29 28 26 26 26 25 23 23 22 23 23 23
25 23 23 24 24 22 21 20 16 13 12 11 10 13 12 13 15 19 23 25 26 27 20 22 21 21 36 37 35 33 32 30 28 28 29 29 27 26 25 25 25 25 25
26 25 24 24 25 24 23 22 19 16 12 11 11 10 13 15 18 18 18 24 25 24 22 23 21 19 27 39 38 37 38 36 36 33 32 30 28 27 27 27 26 27 28
29 28 27 26 26 25 24 25 21 20 17 13 10 9 8 12 17 17 19 26 31 28 24 22 25 18 20 30 36 37 37 37 36 36 33 32 30 31 28 28 28 28 29
31 29 28 26 27 28 28 26 25 23 21 18 15 11 11 11 13 20 24 30 34 35 29 28 25 24 22 27 36 40 42 41 39 38 33 33 33 31 30 30 29 29 29
35 31 30 30 30 30 31 30 27 27 25 22 20 15 13 12 12 14 20 22 34 34 31 29 30 26 26 27 30 32 43 41 46 41 37 36 32 32 31 31 31 31 32
39 37 34 33 34 32 33 33 32 29 27 26 24 22 19 17 16 17 17 18 25 31 33 31 29 27 27 29 29 32 38 39 43 44 43 43 37 33 31 33 33 33 33
43 42 39 36 36 35 35 35 36 33 29 29 28 27 26 25 21 19 21 22 22 23 27 32 35 36 34 33 33 31 38 44 45 46 46 42 45 39 35 36 35 35 35
47 46 44 38 39 40 39 39 38 37 35 33 33 31 31 28 26 26 24 25 27 25 24 22 22 29 34 33 36 36 38 43 46 46 45 42 42 39 37 36 36 36 37
49 47 46 42 42 44 44 43 41 41 41 40 38 34 33 32 31 31 29 28 28 29 28 27 24 23 24 28 35 34 38 42 45 50 47 44 37 36 35 35 36 37 39
52 50 48 44 45 48 49 46 45 45 45 43 40 37 36 36 35 35 33 32 31 30 28 30 29 30 29 28 27 30 35 40 42 42 41 39 46 47 42 41 42 42 42
53 51 49 46 48 51 51 50 48 49 48 46 46 44 43 41 39 39 38 36 35 34 32 33 35 34 33 33 32 33 31 30 31 32 34 37 39 40 43 45 43 41 42
54 53 52 49 51 54 54 53 52 51 51 49 50 50 48 46 45 45 43 42 41 40 38 39 37 37 37 37 36 36 36 38 40 41 43 44 45 45 46 48 50 50 49
55 55 53 52 52 55 56 56 56 55 54 54 53 53 53 51 51 48 48 47 46 45 44 45 43 43 42 41 40 40 41 40 40 41 44 46 48 48 49 51 51 52 53
Wind_Direction
293 296 300 301 295 283 274 275 277 281 283 280 278 274 271 267 253 240 230 227 231 232 230 231 231 236 232 232 228 218 210 210 209 207 204 198 196 193 193 190 189 188 183
297 299 301 302 301 295 283 282 284 287 283 286 282 276 270 260 243 230 227 227 228 233 233 233 235 233 236 234 228 216 208 205 203 203 201 196 195 189 188 189 190 187 182
296 302 302 298 297 296 282 280 284 288 287 287 278 274 270 250 216 224 225 228 230 234 234 238 236 234 233 231 232 229 202 198 198 199 198 199 195 192 192 191 192 188 188
297 295 299 296 295 295 290 283 288 288 290 289 284 277 270 260 234 219 217 222 228 232 231 228 225 226 230 231 231 204 192 193 195 197 197 196 196 191 191 189 187 185 186
294 290 297 297 292 292 292 287 289 289 283 282 285 277 274 245 248 194 199 216 226 219 228 224 232 231 235 227 216 201 187 188 193 195 198 197 194 193 190 188 187 185 183
288 290 296 296 292 292 296 290 288 283 290 284 284 285 269 245 227 204 202 223 221 210 221 224 231 228 229 224 208 198 184 179 189 195 196 198 201 199 194 191 188 188 187
280 288 294 295 294 293 296 291 287 277 279 282 270 284 262 239 227 230 243 229 201 216 218 225 225 217 226 202 193 190 182 184 189 191 196 201 203 201 198 195 195 196 192
280 287 289 292 290 293 295 290 284 282 275 281 258 249 255 235 229 228 217 234 234 221 229 227 222 179 184 183 185 182 187 189 190 196 200 203 202 199 200 202 203 202 200
276 279 284 286 286 290 295 288 284 283 285 286 256 247 243 241 242 249 191 225 221 223 233 227 219 233 223 193 180 180 187 195 195 197 201 204 204 204 199 198 200 203 207
272 274 280 280 281 284 291 291 283 277 286 277 266 242 247 245 228 213 204 204 203 213 219 225 213 215 220 183 180 183 188 198 197 200 204 205 205 207 209 206 205 210 213
269 270 274 274 273 276 283 292 290 281 282 279 262 236 239 255 236 176 184 221 225 214 236 220 219 206 198 186 192 181 190 195 200 202 205 209 208 209 213 213 214 221 223
266 267 265 267 268 269 273 284 288 288 274 285 272 250 257 239 217 233 203 200 203 216 212 197 199 208 222 224 203 192 195 196 202 209 208 210 212 210 216 219 216 226 228
262 261 263 266 266 265 265 272 281 284 281 276 283 247 249 251 237 228 209 224 204 197 211 217 212 220 212 226 204 198 200 204 205 209 213 214 214 212 215 217 221 225 229
262 259 256 259 265 263 262 263 269 274 278 281 279 254 246 245 238 219 226 231 209 204 216 213 214 224 212 213 210 201 205 206 208 216 218 219 221 220 221 223 226 229 231
260 258 257 257 256 261 259 260 260 267 269 275 282 281 266 244 235 224 223 208 200 205 210 208 215 219 216 219 206 208 207 216 215 222 224 226 226 228 228 231 236 238 240
256 255 254 255 255 255 258 257 257 257 260 259 257 264 269 253 233 223 210 208 213 210 215 211 215 215 208 211 211 216 222 221 217 223 224 226 225 228 232 235 238 243 245
254 252 254 252 252 253 253 254 253 253 252 251 253 242 240 247 242 226 226 223 221 223 224 220 212 214 215 217 215 222 222 228 217 223 226 228 229 231 232 236 240 244 247
255 252 248 250 250 250 251 252 250 250 250 251 249 251 242 240 244 244 234 236 227 227 223 228 220 221 220 220 226 226 227 224 219 223 230 229 229 235 235 238 239 240 243
252 250 246 244 246 244 246 249 249 247 248 248 250 250 248 240 234 230 230 225 225 224 231 230 228 227 223 223 227 231 233 230 221 221 223 229 229 239 240 242 242 243 244
250 249 246 241 243 243 244 246 248 249 247 245 245 247 246 242 234 230 229 228 222 221 229 234 235 230 224 224 221 228 231 226 224 223 229 229 231 234 239 244 244 245 245
247 248 248 244 242 244 243 243 244 246 245 242 240 239 246 248 244 234 227 228 232 230 232 232 221 224 226 225 229 228 231 230 227 227 227 232 235 236 237 241 244 246 246
245 244 244 241 241 242 243 243 240 242 245 244 242 240 240 242 247 248 240 232 230 233 234 238 234 231 228 234 235 233 241 238 242 231 231 229 230 236 241 243 246 246 248
243 243 244 241 239 240 242 240 240 239 241 245 247 244 242 242 241 245 247 246 242 240 236 242 241 240 240 236 232 234 237 239 238 239 238 238 240 238 243 246 248 251 252
243 243 241 238 236 237 240 240 238 239 238 239 240 242 240 240 241 240 242 245 248 246 247 243 242 245 245 249 247 243 238 235 238 241 242 243 246 245 245 246 247 253 255
243 243 242 237 233 233 234 238 238 238 239 237 238 240 243 242 242 241 240 240 243 243 244 246 248 248 246 245 248 248 246 241 239 242 245 246 247 249 250 251 253 251 252
240 242 238 235 231 233 235 236 238 238 237 238 238 238 240 241 242 242 242 241 241 242 244 244 244 245 248 250 247 250 251 250 248 247 247 250 251 252 253 255 255 255 256